Terminal Aerodrome Forecast
Issued by NWS Goodland, KS

Home | Current Version | Previous Version | Text Only | Print | Product List | Glossary On
Versions: 1 2 3 4 5 6 7 8 9 10 11 12 13 14 15
000
FTUS43 KGLD 192320
TAFGLD
TAF
KGLD 192320Z 2000/2024 16015KT P6SM SCT250
     FM200200 17015KT P6SM SCT250 WS020/17040KT
     FM201300 18016G24KT P6SM SCT200
     FM201700 19021G32KT P6SM SCT200=

USA.gov is the U.S. government's official web portal to all federal, state and local government web resources and services.